Estación de Yerbas Buenas

Ultimos registro cada 15 minutos 67
Estación Fecha / Hora Temperatura Humedad Lluvia Velocidad Dirección Radiación Presion
67 Yerbas Buenas 04-05-2026 16:30 16,7 77,8 0 0 267 86,9 998
66 Yerbas Buenas 04-05-2026 16:15 16,9 75,8 0 0 267 108,1 997,9
65 Yerbas Buenas 04-05-2026 16:00 16,9 74,2 0 0 267 143,1 997,8
64 Yerbas Buenas 04-05-2026 15:45 17 74,6 0 0 267 138,1 997,8
63 Yerbas Buenas 04-05-2026 15:30 17,1 72,4 0 0 267 118,1 998
62 Yerbas Buenas 04-05-2026 15:15 17,1 72,4 0 0 267 165,6 998
61 Yerbas Buenas 04-05-2026 15:00 17,2 72,1 0 0 267 161,9 998,2
60 Yerbas Buenas 04-05-2026 14:45 17 71,4 0 0 267 155,6 998,7
59 Yerbas Buenas 04-05-2026 14:30 17,1 70,7 0 0 267 175,6 998,7
58 Yerbas Buenas 04-05-2026 14:15 17 70,9 0 0 270 203,1 998,8
57 Yerbas Buenas 04-05-2026 14:00 17,2 73 0 0 278 249,4 999,2
56 Yerbas Buenas 04-05-2026 13:45 16,6 73 0 0 270 254,4 999,3
55 Yerbas Buenas 04-05-2026 13:30 16,4 73,1 0 0 263 220,6 999,6
54 Yerbas Buenas 04-05-2026 13:15 16,2 74,2 0 0 281 233,1 999,7
53 Yerbas Buenas 04-05-2026 13:00 15,9 73,1 0 0 271 210,6 999,8
52 Yerbas Buenas 04-05-2026 12:45 15,8 77,5 0 0 256 206,9 1000,3
51 Yerbas Buenas 04-05-2026 12:30 15,4 79,5 0 0 256 175,6 1000,4
50 Yerbas Buenas 04-05-2026 12:15 14,7 82,5 0 0 212 173,1 1000,5
49 Yerbas Buenas 04-05-2026 12:00 14,6 82,2 0 0 178 153,1 1000,5
48 Yerbas Buenas 04-05-2026 11:45 14,4 82,8 0 0 177 138,1 1000,5
47 Yerbas Buenas 04-05-2026 11:30 14 86 0 0 173 150,6 1000,8
46 Yerbas Buenas 04-05-2026 11:15 13,3 88,5 0 0 173 105,6 1000,7
45 Yerbas Buenas 04-05-2026 11:00 13,3 89 0 0 222 65,6 1001
44 Yerbas Buenas 04-05-2026 10:45 13,1 88,1 0 0 167 48,1 1001,1
43 Yerbas Buenas 04-05-2026 10:30 13,2 88,5 0 0 145 50,6 1001
42 Yerbas Buenas 04-05-2026 10:15 12,9 88,4 0 0 136 51,9 1000,9
41 Yerbas Buenas 04-05-2026 10:00 13 90,5 0 0 135 55,6 1000,6
40 Yerbas Buenas 04-05-2026 09:45 12,6 91,4 0 0 135 50,6 1000,4
39 Yerbas Buenas 04-05-2026 09:30 12,7 93 0 0 135 86,9 1000,4
38 Yerbas Buenas 04-05-2026 09:15 12,3 93,5 0 0 135 73,1 1000,2
37 Yerbas Buenas 04-05-2026 09:00 12 93,8 0 0 135 61,9 1000,5
36 Yerbas Buenas 04-05-2026 08:45 11,8 93,8 0 0 135 45,6 1000,5
35 Yerbas Buenas 04-05-2026 08:30 11,7 93,9 0 0 135 45,6 1000,4
34 Yerbas Buenas 04-05-2026 08:15 11,3 93,9 0 0 135 29,4 1000
33 Yerbas Buenas 04-05-2026 08:00 11,1 93,9 0 0 135 24,4 999,6
32 Yerbas Buenas 04-05-2026 07:45 10,8 93,9 0 0 135 11,9 999,8
31 Yerbas Buenas 04-05-2026 07:30 10,4 93,9 0 0 135 0,6 999,9
30 Yerbas Buenas 04-05-2026 07:15 10,1 93,8 0 0 135 0,6 999,8
29 Yerbas Buenas 04-05-2026 07:00 10,1 93,7 0 0 135 0,6 999,8
28 Yerbas Buenas 04-05-2026 06:45 10,5 93,7 0 0 135 0,6 999,8
27 Yerbas Buenas 04-05-2026 06:30 10,8 93,8 0 0 135 0,6 999,6
26 Yerbas Buenas 04-05-2026 06:15 10,9 93,8 0 0 135 0,6 999,5
25 Yerbas Buenas 04-05-2026 06:00 10,8 93,8 0 0 135 0,6 999,4
24 Yerbas Buenas 04-05-2026 05:45 10,8 93,8 0 0 135 0,6 999,3
23 Yerbas Buenas 04-05-2026 05:30 10,6 93,7 0 0 135 0,6 999,1
22 Yerbas Buenas 04-05-2026 05:15 10,6 93,7 0 0 135 0,6 999,1
21 Yerbas Buenas 04-05-2026 05:00 10,7 93,7 0 0 135 0,6 999,1
20 Yerbas Buenas 04-05-2026 04:45 10,6 93,6 0 0 135 0,6 999,1
19 Yerbas Buenas 04-05-2026 04:30 10,6 93,5 0 0 135 0,6 998,9
18 Yerbas Buenas 04-05-2026 04:15 10,5 93,4 0 0 135 0,6 999
17 Yerbas Buenas 04-05-2026 04:00 10,5 93,4 0 0 135 0,6 999,4
16 Yerbas Buenas 04-05-2026 03:45 10,6 93,4 0 0 135 0,6 999,3
15 Yerbas Buenas 04-05-2026 03:30 10,6 93,3 0 0 135 0,6 999,4
14 Yerbas Buenas 04-05-2026 03:15 10,7 93,2 0 0 135 0,6 999,5
13 Yerbas Buenas 04-05-2026 03:00 10,6 93,1 0 0 135 0,6 999,5
12 Yerbas Buenas 04-05-2026 02:45 10,9 93,2 0 0 135 0,6 999,6
11 Yerbas Buenas 04-05-2026 02:30 10,8 93,1 0 0 135 0,6 999,9
10 Yerbas Buenas 04-05-2026 02:15 10,8 93 0 0 135 0,6 1000,2
9 Yerbas Buenas 04-05-2026 02:00 10,8 93 0 0 135 0,6 1000,5
8 Yerbas Buenas 04-05-2026 01:45 10,8 92,9 0 0 136 0,6 1000,7
7 Yerbas Buenas 04-05-2026 01:30 11 92,9 0 0 136 0,6 1000,4
6 Yerbas Buenas 04-05-2026 01:15 11,1 93,1 0 0 136 0,6 1000,5
5 Yerbas Buenas 04-05-2026 01:00 11,2 93,1 0 0 136 0,6 1000,4
4 Yerbas Buenas 04-05-2026 00:45 11 92,9 0 0 135 0,6 1000,2
3 Yerbas Buenas 04-05-2026 00:30 11,3 92,9 0 0 135 0,6 1000,3
2 Yerbas Buenas 04-05-2026 00:15 11,4 92,8 0 0 135 0,6 1000,2
1 Yerbas Buenas 04-05-2026 00:00 11,5 92,6 0 0 131 0,6 1000,9